Location: Goettingen
(51.5300°N, 9.9433°E)
Time: 05:56:13
(UTC+02:00)

ISS - Pass Details

Date: 26 March 2020
Orbit: 417 x 423 km, 51.6° (Epoch: 29 March)

Event Time Altitude Azimuth Distance (km) Brightness Sun altitude
Rises 21:27:37 0° 280° (W) 2,362 1.0 -24.0°
Reaches altitude 10° 21:29:43 10° 279° (W) 1,498 -0.2 -24.3°
Enters shadow 21:31:34 30° 274° (W) 778 -2.0 -24.5°
